338P/McNaught (2024)

Japanese version
Home page
Updated on November 27, 2024

---------------------------------------------------------------------

* Profile

* Pictures

* Orbital Elements

Epoch 2024 Oct. 17.0 TT = JDT 2460600.5
T 2024 Aug. 3.31485 TT                                  Rudenko
q   2.2879254            (2000.0)            P               Q
n   0.12825833     Peri.    4.60421     +0.96991877     -0.23225522
a   3.8941468      Node     9.79173     +0.20741083     +0.63169868
e   0.4124707      Incl.   25.38392     +0.12742971     +0.73960415
P   7.68
>From 417 observations 2016 June 14-2024 Aug. 31, mean residual 0".8.
     Nongravitational parameters A1 = -1.57, A2 = +0.1424.

* Magnitudes Graph

        m1 = 5.5 + 5 log d + 30.0 log r

---------------------------------------------------------------------

The orbital elements are published on M.P.E.C. 2024-R10.
The magnitudes graphs are made with Comet for Windows.

---------------------------------------------------------------------

Copyright(C) Seiichi Yoshida (comet@aerith.net). All rights reserved.